Regional Weather Roundup
Issued by NWS Mt. Holly, NJ

Home | Current Version | Previous Version | Text Only | Print | Product List | Glossary On
Versions: 1 2 3 4 5 6 7 8 9 10 11 12 13 14 15 16 17 18 19 20 21 22 23 24 25 26 27 28 29 30 31 32 33 34 35 36 37 38 39 40 41 42 43 44 45 46 47 48 49 50
000
ASUS41 KPHI 261110
RWRPHI

REGIONAL WEATHER ROUNDUP
NATIONAL WEATHER SERVICE MOUNT HOLLY NJ
600 AM EST FRI DEC 26 2014

NOTE:  "FAIR" INDICATES FEW OR NO CLOUDS BELOW 12,000 FEET WITH NO
SIGNIFICANT WEATHER AND/OR OBSTRUCTIONS TO VISIBILITY.

 * = STATION DOES NOT REPORT PRECIPITATION (E.G. RAIN, SNOW, ETC.)
        OR FOG.

NJZ015>026-261200-
SOUTHERN NEW JERSEY

CITY           SKY/WX    TMP DP  RH WIND       PRES   REMARKS
POMONA         CLEAR     35  30  82 W6        30.25R WCI  30
RIO GRANDE*    CLEAR     39  30  70 W5        30.24R
MILLVILLE      CLEAR     27  26  96 W3        30.25R
WRIGHTSTOWN    CLEAR     34  29  82 W5        30.21R WCI  30
MOUNT HOLLY    CLEAR     36  29  75 W5        30.24R WCI  32
TRENTON        CLEAR     35  27  72 W5        30.22R WCI  31

$$
NJZ001>014-261200-
NORTHERN NEW JERSEY

CITY           SKY/WX    TMP DP  RH WIND       PRES   REMARKS
SUSSEX         CLEAR     28  25  88 CALM      30.18R
ANDOVER*       NOT AVBL
NEWARK         CLEAR     37  29  72 W12       30.21R WCI  29
TETERBORO      CLEAR     35  29  78 SW7       30.20R WCI  29
CALDWELL       CLEAR     32  28  85 CALM      30.20R
SOMERVILLE     CLEAR     28  25  88 CALM      30.21R
ALLAIRE*       CLEAR     36  25  64 W7        30.21R WCI  30
TOMS RIVER*    CLEAR     34  28  80 CALM      30.22R

$$
PAZ043-044-047-054-055-060>062-066>071-261200-
EASTERN PENNSYLVANIA

CITY           SKY/WX    TMP DP  RH WIND       PRES   REMARKS
PHILADELPHIA   CLEAR     38  29  70 W12       30.26R WCI  30
NORTH PHILA    CLEAR     35  27  72 W7        30.25R WCI  29
BLUE BELL      CLEAR     32  30  93 CALM      30.23R
DOYLESTOWN     CLEAR     32  28  85 W3        30.22R
POTTSTOWN      CLEAR     28  26  92 CALM      30.25R
LANCASTER      CLEAR     29  25  85 NW3       30.25R
COATESVILLE    CLEAR     32  28  86 W5        30.24R WCI  27
READING        CLEAR     32  26  78 CALM      30.24R
ALLENTOWN      CLEAR     34  27  75 SW6       30.22R WCI  29
MOUNT POCONO   CLEAR     31  25  78 NW7       30.13R WCI  24
HAZLETON       CLEAR     32  28  86 W9        30.20R WCI  24
WILKES BARRE   CLEAR     33  26  75 SW6       30.19R WCI  28

$$
DEZALL-MDZ008-012-015-019-020-261200-
DELAWARE AND EASTERN MARYLAND

CITY           SKY/WX    TMP DP  RH WIND       PRES   REMARKS
WILMINGTON     CLEAR     33  28  81 W5        30.27R WCI  29
DOVER          CLEAR     36  30  79 W3        30.24R
GEORGETOWN     CLEAR     32  28  85 CALM      30.27R
EASTON         CLEAR     34  34 100 CALM      30.30R
PATUXENT       CLEAR     29  27  92 W3        30.27R
OCEAN CITY     CLEAR     29  27  92 CALM      30.26R
WALLOPS ISLAND CLEAR     30  28  92 NW5       30.28R WCI  25
CAMBRIDGE      CLEAR     32  32 100 CALM      30.27R
SALISBURY      CLEAR     31  27  85 S6        30.27R WCI  25

$$
PAZ001-021-NYZ056-072-MDZ011-DCZ001-261200-
OTHER NEARBY LOCATIONS

CITY           SKY/WX    TMP DP  RH WIND       PRES   REMARKS
HARRISBURG     CLEAR     29  26  89 CALM      30.26R
STATE COLLEGE  CLEAR     34  27  75 W9        30.22R WCI  26
WILLIAMSPORT   CLEAR     32  25  75 W6        30.22R WCI  26
BINGHAMTON     CLOUDY    35  27  72 W6        30.15R WCI  30
NEW YORK CITY  CLEAR     40  28  62 W6        30.22R
BALTIMORE      CLEAR     30  27  88 CALM      30.27R
WASHINGTON DC  CLEAR     38  29  70 CALM      30.30R

$$



USA.gov is the U.S. government's official web portal to all federal, state and local government web resources and services.